1517112000.77,20766,8.88,73836.3,-6.95,-36.25,-36.31,0,*5A
1517112002.0,20767,8.88,73852.3,-6.95,-36.43,-36.49,0,*54
1517112003.24,20768,8.88,73866.0,-6.93,-36.43,-36.43,0,*57
1517112004.45,20769,8.88,73854.5,-6.95,-36.43,-36.43,0,*50
1517112005.71,20770,8.88,73858.5,-6.93,-36.43,-36.49,0,*54
1517112006.97,20771,8.88,73876.0,-6.93,-36.43,-36.49,0,*55
1517112008.21,20772,8.88,73878.3,-6.93,-36.31,-36.43,0,*59
1517112009.44,20773,8.88,73876.8,-6.93,-36.31,-36.31,0,*5D
1517112010.68,20774,8.88,73896.5,-6.93,-36.43,-36.43,0,*5A
1517112011.92,20775,8.88,73910.0,-6.93,-36.31,-36.43,0,*5E
1517112013.13,20776,8.88,73872.0,-6.95,-36.43,-36.43,0,*5E
1517112014.34,20777,8.88,73870.8,-6.95,-36.43,-36.43,0,*5F
1517112015.57,20778,8.88,73884.0,-6.95,-36.43,-36.49,0,*5A
1517112016.8,20779,8.88,73870.0,-6.95,-35.95,-36.07,0,*59
1517112018.05,20780,8.88,73856.0,-6.95,-35.89,-35.95,0,*5A
1517112019.28,20781,8.88,73834.5,-6.95,-35.83,-35.71,0,*5B
1517112020.51,20782,8.81,73846.0,-6.93,-35.71,-35.71,0,*53
1517112021.74,20783,8.81,73850.0,-6.93,-35.71,-35.71,0,*52
1517112022.98,20784,8.81,73860.0,-6.95,-35.71,-35.83,0,*5E
1517112024.25,20785,8.81,73858.3,-6.91,-35.77,-35.83,0,*5D
1517112025.51,20786,8.81,73852.8,-6.91,-35.83,-36.07,0,*5A
1517112026.76,20787,8.88,73850.8,-6.91,-36.01,-36.01,0,*54
1517112027.99,20788,8.88,73862.3,-6.91,-36.01,-36.19,0,*52
1517112029.28,20789,8.81,73860.5,-6.93,-36.13,-36.25,0,*5D
1517112030.53,20790,8.88,73864.3,-6.93,-36.13,-36.31,0,*50
1517112031.76,20791,8.88,73874.8,-6.95,-36.13,-36.31,0,*57
1517112033.03,20792,8.88,73866.5,-6.93,-36.07,-36.25,0,*52
1517112034.29,20793,8.81,73874.8,-6.93,-36.07,-36.25,0,*53
1517112035.55,20794,8.88,73872.3,-6.93,-35.89,-36.13,0,*54
1517112036.84,20795,8.81,73834.5,-6.93,-35.83,-35.95,0,*52
1517112038.1,20796,8.88,73836.3,-6.93,-35.89,-36.13,0,*56
1517112039.37,20797,8.88,73850.8,-6.91,-35.83,-36.01,0,*5C
1517112040.65,20798,8.81,73848.8,-6.91,-35.83,-35.89,0,*50
1517112041.92,20799,8.88,73858.0,-6.91,-35.83,-36.01,0,*52
1517112043.21,20800,8.88,73862.0,-6.87,-35.83,-36.13,0,*59
1517112044.47,20801,8.88,73864.5,-6.91,-36.01,-36.25,0,*53
1517112045.74,20802,8.88,73886.5,-6.91,-36.07,-36.25,0,*56
1517112047.01,20803,8.81,73888.0,-6.91,-36.07,-36.25,0,*57
1517112048.27,20804,8.88,73890.0,-6.87,-36.13,-36.19,0,*5D
1517112049.5,20805,8.88,73892.3,-6.87,-36.19,-36.31,0,*5C
1517112050.79,20806,8.88,73886.8,-6.91,-36.25,-36.37,0,*51
1517112052.05,20807,8.88,73872.3,-6.91,-36.37,-36.43,0,*50
1517112053.3,20808,8.81,73846.5,-6.91,-36.43,-36.43,0,*5C
1517112054.56,20809,8.88,73860.3,-6.91,-36.55,-36.61,0,*5A
1517112055.82,20810,8.81,73848.3,-6.91,-36.55,-36.61,0,*52
1517112057.09,20811,8.81,73866.5,-6.93,-36.49,-36.67,0,*5A
1517112058.32,20812,8.88,73874.8,-6.95,-36.79,-36.97,0,*53
1517112059.55,20813,8.81,73872.3,-6.95,-36.97,-37.21,0,*5E
1517112060.79,20814,8.81,73880.5,-6.93,-36.97,-37.15,0,*58
1517112062.03,20815,8.81,73872.3,-6.95,-36.31,-36.49,0,*5B
1517112063.29,20816,8.81,73870.0,-6.95,-36.25,-36.49,0,*5D
1517112064.52,20817,8.81,73868.5,-6.95,-36.43,-36.61,0,*56
1517112065.75,20818,8.81,73862.0,-7.01,-36.67,-36.73,0,*50
1517112066.98,20819,8.81,73868.8,-6.99,-36.19,-36.49,0,*51
1517112068.22,20820,8.81,73864.0,-6.99,-36.01,-36.13,0,*5D
1517112069.48,20821,8.81,73892.8,-6.95,-35.83,-35.95,0,*54
1517112070.69,20822,8.81,73884.3,-6.95,-35.71,-35.71,0,*50
1517112071.95,20823,8.81,73880.5,-6.95,-35.65,-35.83,0,*59
1517112073.19,20824,8.81,73882.8,-6.95,-35.71,-35.95,0,*5C
1517112074.45,20825,8.81,73896.8,-6.95,-35.83,-35.95,0,*50
1517112075.66,20826,8.81,73888.5,-6.95,-35.89,-36.07,0,*51
1517112076.89,20827,8.81,73866.5,-6.95,-35.89,-36.13,0,*55
1517112078.13,20828,8.81,73864.3,-6.95,-36.07,-36.25,0,*5A
1517112079.36,20829,8.81,73878.0,-6.95,-36.13,-36.31,0,*5B
1517112080.62,20830,8.81,73886.5,-6.95,-36.25,-36.49,0,*59
1517112081.83,20831,8.81,73886.3,-6.99,-36.19,-36.55,0,*56
1517112083.09,20832,8.81,73884.8,-6.99,-36.13,-36.49,0,*52
1517112084.32,20833,8.81,73884.0,-6.95,-35.95,-36.31,0,*5D
1517112085.56,20834,8.81,73866.8,-6.95,-35.95,-36.31,0,*5A
1517112086.77,20835,8.81,73862.0,-6.95,-36.07,-36.31,0,*53
1517112087.98,20836,8.81,73864.0,-6.95,-36.07,-36.31,0,*50
1517112089.19,20837,8.81,73870.5,-6.95,-36.07,-36.31,0,*51
1517112090.42,20838,8.81,73860.3,-6.95,-35.89,-36.13,0,*5B
1517112091.69,20839,8.81,73862.8,-6.95,-35.83,-35.95,0,*5D
1517112092.91,20840,8.81,73866.8,-6.95,-35.71,-35.89,0,*53
1517112094.15,20841,8.81,73870.5,-6.95,-35.65,-35.89,0,*57
1517112095.37,20842,8.81,73866.8,-6.95,-35.47,-35.65,0,*56
1517112096.58,20843,8.81,73858.8,-6.95,-35.47,-35.71,0,*52
1517112097.86,20844,8.81,73840.3,-6.93,-35.35,-35.53,0,*56
1517112099.11,20845,8.81,73834.5,-6.95,-35.53,-35.65,0,*54
1517112100.33,20846,8.81,73846.3,-6.95,-35.71,-35.89,0,*55
1517112101.61,20847,8.81,73850.8,-6.93,-35.83,-36.13,0,*5F
1517112102.9,20848,8.81,73858.3,-6.93,-35.83,-36.13,0,*50
1517112104.15,20849,8.81,73834.8,-6.93,-35.89,-36.13,0,*5B
1517112105.39,20850,8.81,73832.0,-6.95,-35.89,-36.25,0,*50
1517112106.63,20851,8.81,73854.8,-6.95,-36.07,-36.25,0,*54
1517112107.87,20852,8.81,73868.8,-6.93,-36.07,-36.31,0,*54
1517112109.16,20853,8.81,73864.8,-6.93,-35.95,-36.25,0,*58
1517112110.42,20854,8.81,73866.8,-6.93,-35.95,-36.31,0,*5A
1517112111.66,20855,8.81,73872.5,-6.95,-35.95,-36.43,0,*58
1517112112.87,20856,8.81,73890.0,-6.95,-36.07,-36.43,0,*53
1517112114.1,20857,8.81,73898.5,-6.95,-35.95,-36.31,0,*5F
1517112115.33,20858,8.81,73888.8,-6.95,-35.83,-36.07,0,*52
1517112116.63,20859,8.81,73872.3,-6.93,-35.83,-35.95,0,*5D
1517112117.86,20860,8.81,73868.5,-6.93,-35.89,-36.07,0,*55
1517112119.09,20861,8.81,73860.8,-6.95,-35.89,-36.13,0,*57
1517112120.33,20862,8.81,73866.3,-6.95,-35.89,-36.25,0,*51
1517112121.57,20863,8.81,73868.3,-6.95,-35.89,-36.25,0,*50
1517112122.8,20864,8.81,73854.0,-6.93,-35.89,-36.31,0,*54
1517112124.04,20865,8.81,73844.3,-6.93,-35.89,-36.31,0,*55
1517112125.28,20866,8.81,73838.0,-6.95,-35.95,-36.31,0,*5D
1517112126.51,20867,8.81,73880.3,-6.95,-35.89,-36.13,0,*51
1517112127.75,20868,8.81,73876.8,-6.95,-35.71,-35.95,0,*54
1517112128.97,20869,8.81,73876.8,-6.95,-35.65,-35.71,0,*5A
1517112130.24,20870,8.81,73868.3,-6.93,-35.71,-35.95,0,*5B
1517112131.47,20871,8.81,73876.5,-6.95,-35.89,-36.13,0,*56
1517112132.71,20872,8.81,73860.5,-6.93,-36.07,-36.31,0,*56
1517112133.92,20873,8.81,73854.8,-6.95,-36.07,-36.43,0,*54
1517112135.18,20874,8.81,73862.3,-6.93,-35.95,-36.43,0,*5D
1517112136.47,20875,8.81,73868.5,-6.93,-36.25,-36.49,0,*5E
1517112137.72,20876,8.81,73870.5,-6.95,-36.13,-36.49,0,*5E
1517112138.96,20877,8.81,73868.0,-6.95,-35.95,-36.43,0,*58
1517112140.17,20878,8.81,73878.0,-6.95,-36.07,-36.43,0,*5F
1517112141.4,20879,8.81,73868.3,-6.95,-36.07,-36.49,0,*54
1517112142.64,20880,8.81,73868.0,-6.99,-36.37,-36.67,0,*51
1517112143.87,20881,8.81,73862.8,-6.99,-36.49,-36.73,0,*5C
1517112145.1,20882,8.81,73860.0,-6.99,-36.19,-36.49,0,*53
1517112146.34,20883,8.81,73864.8,-6.99,-35.95,-36.31,0,*5A
1517112147.6,20884,8.81,73852.8,-6.99,-35.95,-36.13,0,*5D
1517112148.8,20885,8.81,73844.5,-6.99,-35.89,-36.19,0,*5B
1517112150.01,20886,8.81,73850.3,-6.99,-35.89,-36.19,0,*58
1517112151.25,20887,8.81,73856.8,-6.99,-35.59,-35.95,0,*53
1517112152.46,20888,8.81,73866.3,-6.99,-35.59,-35.89,0,*51
1517112153.69,20889,8.81,73868.0,-6.99,-35.53,-35.89,0,*5A
1517112154.92,20890,8.81,73864.5,-6.95,-35.53,-35.71,0,*59
1517112156.15,20891,8.81,73862.8,-6.95,-35.65,-35.89,0,*5A
1517112157.4,20892,8.81,73866.0,-6.93,-35.53,-35.71,0,*5D
1517112158.66,20893,8.81,73872.0,-6.93,-35.47,-35.83,0,*54
1517112159.9,20894,8.81,73848.8,-6.95,-35.83,-36.07,0,*52
1517112161.16,20895,8.81,73852.3,-6.95,-35.83,-35.95,0,*5B
1517112162.4,20896,8.81,73856.0,-6.95,-35.65,-35.89,0,*5D
1517112163.65,20897,8.81,73844.0,-6.95,-35.53,-35.83,0,*53
1517112164.87,20898,8.81,73858.0,-6.95,-35.71,-35.89,0,*56
1517112166.13,20899,8.81,73844.0,-6.95,-35.65,-35.83,0,*58
1517112167.41,20900,8.81,73856.0,-6.93,-35.53,-35.83,0,*5A
1517112168.66,20901,8.81,73854.3,-6.93,-35.47,-35.65,0,*56
1517112169.93,20902,8.81,73854.8,-6.93,-35.53,-35.65,0,*50
1517112171.22,20903,8.81,73830.5,-6.93,-35.65,-35.95,0,*5B
1517112172.48,20904,8.81,73854.3,-6.93,-35.83,-36.07,0,*5C
1517112173.71,20905,8.81,73840.0,-6.93,-35.89,-36.07,0,*57
1517112174.97,20906,8.81,73822.5,-6.93,-35.89,-36.13,0,*51
1517112176.21,20907,8.81,73842.5,-6.95,-35.89,-36.25,0,*53
1517112177.44,20908,8.81,73856.5,-6.93,-35.89,-36.07,0,*5A
1517112178.73,20909,8.81,73864.3,-6.93,-35.95,-36.13,0,*53
1517112179.97,20910,8.81,73868.5,-6.95,-36.07,-36.25,0,*50
1517112181.2,20911,8.81,73874.3,-6.93,-36.07,-36.31,0,*52
1517112182.43,20912,8.81,73876.0,-6.95,-35.95,-36.07,0,*5A
1517112183.68,20913,8.81,73874.3,-6.93,-35.89,-35.89,0,*55
1517112184.89,20914,8.81,73878.8,-6.95,-35.71,-35.71,0,*54
1517112186.14,20915,8.81,73874.5,-6.95,-35.65,-35.83,0,*5D
1517112187.38,20916,8.81,73874.0,-6.95,-35.89,-35.95,0,*5B
1517112188.62,20917,8.81,73870.8,-6.99,-36.07,-36.13,0,*5E
1517112189.86,20918,8.81,73882.3,-6.99,-35.89,-35.95,0,*59
1517112191.07,20919,8.81,73880.0,-6.99,-35.71,-35.89,0,*52
1517112192.35,20920,8.81,73892.3,-7.01,-35.35,-36.13,0,*58
1517112193.63,20921,8.81,73906.5,-7.01,-35.95,-36.37,0,*55
1517112194.88,20922,8.81,73908.8,-7.01,-36.19,-36.49,0,*58
1517112196.14,20923,8.81,73902.0,-7.01,-36.19,-36.37,0,*50
1517112197.39,20924,8.75,73886.0,-7.01,-36.13,-36.31,0,*5B
1517112198.65,20925,8.81,73886.8,-7.01,-35.89,-36.13,0,*5A
1517112199.85,20926,8.81,73864.5,-7.03,-35.77,-36.07,0,*5F
1517112201.08,20927,8.81,73866.3,-7.03,-36.19,-36.37,0,*56
1517112202.32,20928,8.75,73878.5,-7.03,-36.43,-36.61,0,*55
1517112203.6,20929,8.81,73902.3,-7.05,-36.25,-36.37,0,*51
1517112204.84,20930,8.81,73892.8,-7.03,-35.77,-35.95,0,*50
1517112206.13,20931,8.81,73872.5,-7.05,-35.83,-35.95,0,*5C
1517112207.37,20932,8.81,73872.0,-7.05,-36.01,-36.01,0,*58
1517112208.61,20933,8.81,73872.3,-7.05,-36.01,-36.01,0,*59
1517112209.84,20934,8.81,73888.8,-7.03,-36.19,-36.25,0,*57
1517112211.1,20935,8.81,73874.3,-7.05,-36.19,-36.25,0,*50
1517112212.34,20936,8.75,73874.8,-7.03,-36.25,-36.43,0,*5A
1517112213.57,20937,8.81,73868.0,-7.03,-36.37,-36.43,0,*58
1517112214.83,20938,8.75,73862.8,-7.05,-36.25,-36.43,0,*52
1517112216.09,20939,8.75,73866.0,-7.05,-36.55,-36.61,0,*54
1517112217.3,20940,8.81,73870.8,-7.03,-36.55,-36.73,0,*5F
1517112218.52,20941,8.81,73860.5,-7.03,-36.43,-36.43,0,*5A
1517112219.77,20942,8.81,73856.0,-7.01,-36.31,-36.37,0,*5D
1517112221.03,20943,8.81,73858.5,-7.05,-36.37,-36.43,0,*5D
1517112222.27,20944,8.81,73842.5,-7.05,-36.43,-36.55,0,*5E
1517112223.51,20945,8.81,73848.0,-7.05,-36.55,-36.55,0,*58
1517112224.77,20946,8.81,73852.8,-7.09,-36.25,-36.31,0,*52
1517112225.98,20947,8.81,73846.0,-7.07,-36.01,-36.01,0,*58
1517112227.22,20948,8.81,73842.8,-7.07,-35.83,-35.71,0,*5A
1517112228.47,20949,8.81,73846.5,-7.07,-35.65,-35.65,0,*56
1517112229.74,20950,8.75,73850.8,-7.05,-35.65,-35.65,0,*5C
1517112230.99,20951,8.81,73860.0,-7.05,-35.65,-35.59,0,*52
1517112232.24,20952,8.81,73844.8,-7.05,-35.65,-35.77,0,*5D
1517112233.47,20953,8.81,73836.0,-7.03,-35.65,-35.59,0,*56
1517112234.7,20954,8.75,73846.0,-7.05,-35.59,-35.47,0,*57
1517112235.91,20955,8.81,73842.8,-7.03,-35.59,-35.47,0,*50
1517112237.16,20956,8.75,73838.8,-7.05,-35.41,-35.29,0,*54
1517112238.42,20957,8.75,73840.0,-7.03,-35.41,-35.41,0,*5D
1517112239.65,20958,8.81,73842.5,-7.03,-35.47,-35.41,0,*54
1517112240.86,20959,8.81,73834.8,-7.03,-35.29,-35.29,0,*53
1517112242.09,20960,8.75,73814.5,-7.03,-35.29,-35.23,0,*53
1517112243.33,20961,8.75,73824.0,-7.03,-35.29,-35.23,0,*52
1517112244.58,20962,8.81,73820.0,-7.01,-35.59,-35.41,0,*50
1517112245.85,20963,8.75,73802.0,-7.01,-35.53,-35.41,0,*5B
1517112247.1,20964,8.75,73826.0,-6.99,-35.53,-35.41,0,*5C
1517112248.3,20965,8.75,73812.5,-6.99,-35.17,-35.17,0,*5E
1517112249.55,20966,8.75,73796.3,-6.99,-35.41,-35.35,0,*5E
1517112250.79,20967,8.81,73816.5,-7.01,-35.77,-35.59,0,*50
1517112251.99,20968,8.81,73808.5,-6.99,-35.89,-35.59,0,*5E
1517112253.2,20969,8.75,73824.8,-6.99,-35.71,-35.71,0,*52
1517112254.43,20970,8.75,73824.8,-6.95,-35.59,-35.41,0,*5F
1517112255.68,20971,8.81,73832.3,-6.95,-35.35,-35.35,0,*57
1517112256.91,20972,8.75,73834.3,-6.99,-35.35,-35.17,0,*58
1517112258.13,20973,8.75,73824.8,-6.95,-35.29,-35.29,0,*55
1517112259.37,20974,8.75,73826.8,-6.95,-35.53,-35.35,0,*52
1517112260.62,20975,8.75,73834.0,-6.95,-35.65,-35.65,0,*53
1517112261.86,20976,8.75,73848.0,-6.95,-35.89,-35.83,0,*5A
1517112263.11,20977,8.75,73858.8,-6.95,-35.95,-35.89,0,*5C
1517112264.32,20978,8.75,73866.5,-6.99,-36.01,-35.89,0,*51
1517112265.53,20979,8.75,73892.5,-6.99,-35.89,-35.59,0,*5E
1517112266.77,20980,8.75,73886.0,-6.99,-35.95,-35.71,0,*5F
1517112267.98,20981,8.75,73890.3,-6.99,-36.01,-35.89,0,*57
1517112269.22,20982,8.75,73880.3,-6.99,-36.13,-36.01,0,*54
1517112270.45,20983,8.75,73880.8,-6.99,-36.13,-36.01,0,*55
1517112271.67,20984,8.75,73872.0,-6.99,-36.19,-36.01,0,*58
1517112272.93,20985,8.75,73856.3,-6.99,-36.13,-35.95,0,*5D
1517112274.16,20986,8.75,73862.5,-7.01,-36.19,-36.01,0,*5A
1517112275.42,20987,8.75,73858.3,-7.01,-36.13,-36.01,0,*51
1517112276.66,20988,8.81,73852.3,-6.99,-36.13,-36.01,0,*5E
1517112277.92,20989,8.75,73840.0,-7.01,-36.13,-36.01,0,*5F
1517112279.21,20990,8.75,73826.0,-7.01,-35.95,-35.95,0,*54
1517112280.48,20991,8.75,73828.3,-7.01,-35.95,-35.89,0,*58
1517112281.75,20992,8.81,73854.3,-7.01,-35.95,-35.89,0,*5B
1517112283.04,20993,8.75,73864.5,-7.01,-35.95,-35.95,0,*57
1517112284.31,20994,8.75,73846.8,-7.01,-36.01,-35.95,0,*5E
1517112285.57,20995,8.75,73860.8,-7.01,-36.13,-36.01,0,*52
1517112286.83,20996,8.75,73876.0,-7.01,-36.01,-35.95,0,*5C
1517112288.07,20997,8.75,73900.0,-7.03,-36.07,-35.95,0,*59
1517112289.32,20998,8.75,73892.8,-7.03,-36.07,-35.95,0,*56
1517112290.56,20999,8.75,73890.3,-7.03,-36.07,-35.95,0,*57
1517112291.8,21000,8.75,73886.3,-7.03,-36.01,-35.95,0,*59
1517112293.02,21001,8.75,73888.5,-7.03,-36.01,-36.01,0,*56
1517112294.23,21002,8.75,73886.8,-7.03,-36.07,-36.07,0,*55
1517112295.46,21003,8.75,73890.0,-7.05,-36.07,-36.07,0,*52
1517112296.66,21004,8.75,73892.3,-7.03,-36.19,-36.07,0,*5C
1517112297.9,21005,8.75,73886.8,-7.05,-36.07,-36.01,0,*52
1517112299.16,21006,8.81,73894.8,-7.05,-36.07,-35.83,0,*58
1517112300.42,21007,8.75,73890.8,-7.05,-36.01,-35.83,0,*5F
1517112301.68,21008,8.75,73874.5,-7.05,-35.83,-35.59,0,*5E
1517112302.94,21009,8.75,73876.3,-7.05,-35.83,-35.59,0,*5F
1517112304.17,21010,8.75,73888.5,-7.05,-36.01,-35.77,0,*52
1517112305.46,21011,8.75,73882.0,-7.05,-35.95,-35.65,0,*5E
1517112306.74,21012,8.75,73912.8,-7.05,-35.95,-35.65,0,*5D
1517112307.98,21013,8.75,73884.5,-7.05,-36.01,-35.77,0,*51
1517112309.23,21014,8.75,73896.3,-7.05,-36.01,-35.65,0,*55
1517112310.5,21015,8.75,73884.5,-7.05,-35.95,-35.77,0,*59
1517112311.76,21016,8.75,73856.5,-7.05,-36.01,-35.95,0,*58
1517112313.03,21017,8.75,73866.0,-7.05,-36.07,-35.95,0,*5F
1517112314.29,21018,8.75,73886.0,-7.05,-36.01,-35.83,0,*51
1517112315.52,21019,8.75,73864.3,-7.07,-35.89,-35.65,0,*59
1517112316.75,21020,8.75,73846.5,-7.05,-35.77,-35.47,0,*50
1517112317.99,21021,8.75,73834.5,-7.03,-35.83,-35.59,0,*53
1517112319.22,21022,8.75,73844.8,-7.05,-35.77,-35.59,0,*5D
1517112320.45,21023,8.75,73852.8,-7.05,-35.59,-35.29,0,*57
1517112321.71,21024,8.75,73854.3,-7.05,-35.47,-35.23,0,*55
1517112322.96,21025,8.75,73840.0,-7.05,-35.65,-35.29,0,*5E
1517112324.24,21026,8.75,73844.5,-7.05,-35.65,-35.41,0,*53
1517112325.49,21027,8.75,73854.0,-7.05,-35.65,-35.47,0,*54
1517112326.72,21028,8.75,73858.5,-7.05,-35.47,-35.29,0,*53
1517112327.95,21029,8.75,73864.3,-7.07,-35.53,-35.17,0,*58
1517112329.2,21030,8.75,73876.0,-7.05,-35.47,-35.23,0,*50
1517112330.46,21031,8.75,73882.3,-7.05,-35.77,-35.41,0,*56
1517112331.69,21032,8.75,73880.0,-7.05,-35.77,-35.59,0,*5C
1517112332.95,21033,8.75,73876.3,-7.05,-35.83,-35.59,0,*56
1517112334.18,21034,8.75,73864.5,-7.03,-35.83,-35.59,0,*57
1517112335.46,21035,8.75,73858.3,-7.05,-35.41,-35.41,0,*57
1517112336.73,21036,8.75,73862.0,-7.05,-35.41,-35.23,0,*50
1517112338.0,21037,8.75,73868.5,-7.05,-35.65,-35.41,0,*53
1517112339.24,21038,8.75,73868.5,-7.03,-35.83,-35.59,0,*5B
1517112340.5,21039,8.75,73858.3,-7.05,-35.95,-35.77,0,*57
1517112341.74,21040,8.75,73858.5,-7.05,-36.01,-35.77,0,*57
1517112342.98,21041,8.75,73846.8,-7.05,-36.01,-35.77,0,*56
1517112344.24,21042,8.75,73856.3,-7.05,-36.01,-35.83,0,*5E
1517112345.51,21043,8.75,73860.0,-7.05,-36.07,-35.95,0,*5E
1517112346.74,21044,8.75,73872.8,-7.03,-36.19,-35.83,0,*57
1517112347.98,21045,8.75,73872.0,-7.07,-36.13,-35.89,0,*52
1517112349.24,21046,8.75,73884.0,-7.09,-36.01,-35.65,0,*5E
1517112350.48,21047,8.75,73868.5,-7.07,-35.53,-35.35,0,*50
1517112351.73,21048,8.75,73884.0,-7.07,-35.65,-35.35,0,*5A
1517112352.99,21049,8.75,73898.8,-7.05,-35.77,-35.41,0,*59
1517112354.24,21050,8.75,73890.8,-7.07,-35.53,-35.35,0,*56
1517112355.49,21051,8.75,73844.3,-7.09,-35.53,-35.29,0,*54
1517112356.7,21052,8.75,73834.3,-7.07,-35.17,-34.77,0,*53
1517112357.9,21053,8.75,73850.5,-7.07,-35.13,-34.89,0,*57
1517112359.13,21054,8.75,73870.5,-7.07,-35.35,-35.13,0,*56
1517112360.36,21055,8.75,73880.3,-7.07,-35.71,-35.35,0,*53
1517112361.62,21056,8.75,73884.5,-7.05,-35.47,-35.23,0,*50
1517112362.89,21057,8.75,73876.8,-7.05,-35.65,-35.41,0,*55
1517112364.15,21058,8.75,73852.0,-7.05,-35.83,-35.47,0,*54
1517112365.39,21059,8.75,73852.8,-7.03,-35.77,-35.41,0,*5E
1517112366.64,21060,8.75,73866.8,-7.05,-35.59,-35.41,0,*5E
1517112367.87,21061,8.75,73846.3,-7.07,-35.71,-35.35,0,*54
1517112369.08,21062,8.75,73866.8,-7.07,-35.71,-35.47,0,*52
1517112370.29,21063,8.75,73894.8,-7.07,-35.29,-34.89,0,*5D
1517112371.49,21064,8.75,73890.0,-7.07,-35.13,-34.71,0,*54
1517112372.7,21065,8.75,73874.5,-7.07,-35.29,-34.89,0,*5B
1517112373.93,21066,8.75,73860.5,-7.05,-35.29,-34.89,0,*5A
1517112375.18,21067,8.75,73864.5,-7.05,-35.47,-35.07,0,*54
1517112376.45,21068,8.75,73866.5,-7.05,-35.41,-35.23,0,*5B
1517112377.73,21069,8.75,73850.3,-7.05,-35.41,-35.07,0,*5C
1517112378.96,21070,8.75,73830.8,-7.05,-35.47,-35.13,0,*57
1517112380.19,21071,8.75,73826.0,-7.03,-35.47,-35.23,0,*53
1517112381.42,21072,8.75,73842.0,-7.05,-35.59,-35.29,0,*53
1517112382.65,21073,8.75,73838.5,-7.05,-35.59,-35.29,0,*52
1517112383.88,21074,8.75,73832.3,-7.05,-35.59,-35.29,0,*55
1517112385.12,21075,8.75,73846.5,-7.05,-35.47,-35.13,0,*52
1517112386.39,21076,8.75,73846.5,-7.05,-35.23,-34.83,0,*5B
1517112387.64,21077,8.75,73864.0,-7.05,-35.23,-34.89,0,*50
1517112388.9,21078,8.75,73868.3,-7.03,-35.23,-34.83,0,*53
1517112390.16,21079,8.75,73862.0,-7.03,-34.95,-34.53,0,*53
1517112391.42,21080,8.75,73858.0,-7.03,-34.95,-34.53,0,*55
1517112392.66,21081,8.75,73856.0,-7.03,-35.07,-34.71,0,*5E
1517112393.89,21082,8.75,73846.0,-7.05,-35.13,-34.71,0,*5E
1517112395.14,21083,8.75,73840.5,-7.03,-35.23,-34.83,0,*57
1517112396.42,21084,8.75,73848.5,-7.05,-35.23,-34.83,0,*56
1517112397.65,21085,8.75,73854.3,-7.05,-35.13,-34.71,0,*59
1517112398.91,21086,8.75,73868.0,-7.01,-35.01,-34.65,0,*58
1517112400.18,21087,8.75,73864.0,-7.03,-35.07,-34.65,0,*5D
1517112401.43,21088,8.75,73862.8,-7.03,-35.41,-35.07,0,*55
1517112402.68,21089,8.75,73862.5,-7.01,-35.35,-35.17,0,*54
1517112403.89,21090,8.75,73862.3,-7.03,-35.59,-35.29,0,*59
1517112405.14,21091,8.75,73862.8,-7.03,-35.65,-35.23,0,*5D
1517112406.36,21092,8.75,73856.0,-7.03,-35.59,-35.23,0,*51
1517112407.6,21093,8.75,73860.3,-7.03,-35.65,-35.29,0,*55
1517112408.85,21094,8.75,73844.0,-7.05,-35.65,-35.13,0,*5D
1517112410.09,21095,8.75,73854.3,-7.03,-35.65,-35.23,0,*59
1517112411.32,21096,8.75,73866.5,-7.03,-35.59,-35.23,0,*55
1517112412.53,21097,8.75,73860.5,-7.03,-35.59,-35.13,0,*57
1517112413.77,21098,8.75,73864.5,-7.05,-35.77,-35.29,0,*5B
1517112415.0,21099,8.75,73858.8,-7.05,-35.77,-35.29,0,*5A
1517112416.25,21100,8.75,73858.8,-7.05,-35.59,-35.23,0,*5D
1517112417.51,21101,8.75,73828.5,-7.05,-35.65,-35.29,0,*59
1517112418.78,21102,8.75,73834.0,-7.05,-35.65,-35.23,0,*50
1517112420.06,21103,8.75,73848.8,-7.05,-35.83,-35.41,0,*5D
1517112421.32,21104,8.75,73860.5,-7.05,-35.65,-35.29,0,*5C
1517112422.55,21105,8.75,73864.8,-7.05,-35.47,-35.13,0,*54
1517112423.76,21106,8.75,73864.0,-7.07,-35.47,-35.13,0,*55
1517112424.99,21107,8.75,73882.3,-7.07,-35.35,-34.71,0,*54
1517112426.19,21108,8.75,73860.0,-7.07,-35.29,-34.59,0,*5C
1517112427.43,21109,8.75,73850.3,-7.07,-35.01,-34.53,0,*5D
1517112428.66,21110,8.75,73852.8,-7.09,-34.89,-34.77,0,*5C
1517112429.92,21111,8.75,73840.8,-7.09,-35.17,-34.95,0,*57
1517112431.15,21112,8.75,73852.8,-7.07,-35.35,-35.13,0,*55
1517112432.38,21113,8.75,73848.3,-7.09,-35.47,-34.89,0,*5D
1517112433.6,21114,8.75,73856.5,-7.09,-35.17,-34.89,0,*5F
1517112434.85,21115,8.75,73842.5,-7.11,-35.23,-35.23,0,*51
1517112436.08,21116,8.75,73848.0,-7.13,-35.89,-35.71,0,*57
1517112437.29,21117,8.75,73854.8,-7.11,-35.77,-35.59,0,*5F
1517112438.49,21118,8.75,73858.5,-7.11,-35.89,-35.59,0,*51
1517112439.75,21119,8.75,73864.3,-7.13,-35.77,-35.41,0,*5A
1517112441.0,21120,8.75,73870.5,-7.11,-35.41,-34.95,0,*5F
1517112442.2,21121,8.75,73862.3,-7.11,-35.17,-34.59,0,*5D
1517112443.42,21122,8.75,73864.8,-7.11,-35.01,-34.47,0,*56
1517112444.68,21123,8.75,73860.5,-7.13,-35.07,-34.47,0,*53
1517112445.91,21124,8.75,73862.0,-7.11,-35.23,-34.77,0,*53
1517112447.16,21125,8.75,73844.3,-7.13,-35.35,-34.77,0,*57
1517112448.4,21126,8.75,73850.8,-7.11,-35.35,-34.83,0,*5D
1517112449.64,21127,8.75,73850.8,-7.11,-35.17,-34.65,0,*54
1517112450.89,21128,8.75,73874.3,-7.11,-35.23,-34.65,0,*5C
1517112452.15,21129,8.75,73860.5,-7.11,-35.23,-34.65,0,*5D
1517112453.4,21130,8.75,73860.8,-7.11,-35.23,-34.83,0,*5D
1517112454.65,21131,8.75,73842.0,-7.11,-35.41,-34.95,0,*5F
1517112455.91,21132,8.75,73850.0,-7.11,-35.41,-34.95,0,*5C
1517112457.15,21133,8.75,73844.8,-7.11,-35.41,-34.83,0,*5A
1517112458.4,21134,8.75,73838.5,-7.13,-35.53,-35.01,0,*57
1517112459.6,21135,8.69,73842.8,-7.11,-35.59,-35.01,0,*5E
1517112460.8,21136,8.75,73858.3,-7.11,-35.71,-35.17,0,*50
1517112462.03,21137,8.75,73864.5,-7.13,-35.59,-35.01,0,*5E
1517112463.26,21138,8.75,73872.0,-7.13,-35.77,-35.17,0,*5A
1517112464.51,21139,8.75,73842.5,-7.13,-35.71,-35.23,0,*5A
1517112465.76,21140,8.75,73800.3,-7.13,-35.77,-35.23,0,*52
1517112467.02,21141,8.75,73794.5,-7.13,-35.77,-35.23,0,*53
1517112468.24,21142,8.75,73836.0,-7.13,-35.71,-35.17,0,*51
1517112469.47,21143,8.69,73840.3,-7.13,-35.77,-35.17,0,*56
1517112470.72,21144,8.75,73810.8,-7.13,-35.53,-34.77,0,*50
1517112471.94,21145,8.75,73886.5,-7.15,-35.47,-34.83,0,*59
1517112473.17,21146,8.75,73830.8,-7.15,-35.47,-34.83,0,*5A
1517112474.38,21147,8.75,73854.8,-7.15,-35.47,-35.01,0,*50
1517112475.58,21148,8.75,73888.8,-7.15,-35.59,-34.77,0,*50
1517112476.82,21149,8.75,73868.3,-7.15,-35.07,-34.13,0,*58
1517112478.11,21150,8.75,73862.3,-7.17,-35.07,-33.77,0,*57
1517112479.39,21151,8.75,73858.0,-7.17,-34.35,-33.89,0,*57
1517112480.68,21152,8.75,73854.5,-7.17,-34.65,-34.19,0,*5F
1517112481.91,21153,8.75,73846.5,-7.15,-34.89,-34.65,0,*55
1517112483.2,21154,8.75,73842.8,-7.17,-35.07,-34.53,0,*52
1517112484.46,21155,8.75,73848.3,-7.17,-35.13,-34.53,0,*56
1517112485.7,21156,8.75,73836.5,-7.17,-35.01,-34.47,0,*53
1517112486.96,21157,8.75,73862.5,-7.21,-35.07,-34.59,0,*5E
1517112488.22,21158,8.75,73844.8,-7.21,-35.13,-34.53,0,*5E
1517112489.5,21159,8.75,73852.8,-7.21,-35.07,-34.53,0,*5A
1517112490.77,21160,8.75,73842.8,-7.17,-35.01,-34.53,0,*53
1517112492.03,21161,8.75,73852.5,-7.21,-35.29,-34.65,0,*58
1517112493.31,21162,8.75,73880.3,-7.17,-35.41,-34.83,0,*58
1517112494.59,21163,8.75,73898.8,-7.17,-35.23,-34.53,0,*50
1517112495.84,21164,8.75,73898.8,-7.17,-34.89,-34.19,0,*58
1517112497.09,21165,8.75,73886.3,-7.21,-35.07,-34.25,0,*54
1517112498.35,21166,8.75,73898.0,-7.21,-35.13,-34.53,0,*53
1517112499.61,21167,8.75,73872.5,-7.17,-35.07,-34.47,0,*57
1517112500.9,21168,8.75,73862.0,-7.17,-35.07,-34.35,0,*5D
1517112502.1,21169,8.75,73846.5,-7.15,-35.13,-34.47,0,*5E
1517112503.34,21170,8.75,73818.0,-7.17,-35.13,-34.47,0,*54
1517112504.6,21171,8.69,73878.3,-7.17,-35.29,-34.65,0,*5C
1517112505.89,21172,8.75,73862.5,-7.17,-35.23,-34.53,0,*50